This demonstration page uses our WeatherBlox Daily Observations layout. Learn more.

Left ArrowRight Arrow

Hourly Observations for July 8, 2019

Temp ( °F °C ) Dew Point ( °F °C ) Humidity (%) Winds ( mph kmh ) Pressure ( in mb ) Visibility ( mi km ) Precip ( " mm )
12:56 am 00:56 Clear 69 20.6 67 19.4 93 93 ESE 6 9 29.97 1015 10 16 0.00 0.00
1:56 am 01:56 Clear 69 20.6 67 19.4 93 93 SSE 7 11 29.96 1015 10 16 0.00 0.00
2:56 am 02:56 Clear 69 20.6 66 18.9 90 90 SSE 6 9 29.96 1015 10 16 0.00 0.00
3:56 am 03:56 Clear 68 20 66 18.9 93 93 SSE 7 11 29.94 1014 10 16 0.00 0.00
4:56 am 04:56 Cloudy 68 20 66 18.9 93 93 ESE 6 9 29.93 1014 10 16 0.00 0.00
5:56 am 05:56 Mostly Clear 67 19.4 66 18.9 97 97 SE 5 7 29.93 1014 10 16 0.00 0.00
6:56 am 06:56 Sunny 68 20 66 18.9 93 93 SE 8 13 29.94 1014 10 16 0.00 0.00
7:56 am 07:56 Sunny 71 21.7 69 20.6 94 94 SSE 13 20 29.93 1014 10 16 0.00 0.00
8:56 am 08:56 Sunny 73 22.8 70 21.1 90 90 SE 14 22 29.94 1014 10 16 0.00 0.00
9:56 am 09:56 Partly Cloudy 74 23.3 71 21.7 91 91 SSE 10 17 29.94 1014 10 16 0.00 0.00
10:56 am 10:56 Partly Cloudy 78 25.6 72 22.2 82 82 SE 13 20 29.93 1014 10 16 0.00 0.00
11:06 am 11:06 Mostly Cloudy 79 26 72 22 79 79 SSE 18 30 29.86 1011 10 16 0.00 0.00
11:13 am 11:13 Mostly Cloudy 81 27 72 22 74 74 SSE 17 28 29.85 1011 10 16 0.00 0.00
11:56 am 11:56 Cloudy 79 26.1 73 22.8 82 82 SSE 14 22 29.93 1013 10 16 0.00 0.00
12:30 pm 12:30 Mostly Cloudy 81 27 72 22 74 74 SSE 16 26 29.85 1011 10 16 0.00 0.00
12:56 pm 12:56 Mostly Cloudy 80 26.7 72 22.2 76 76 SSE 14 22 29.92 1013 10 16 0.00 0.00
1:08 pm 13:08 Mostly Cloudy 81 27 72 22 74 74 SSE 14 22 29.84 1011 10 16 0.00 0.00
1:29 pm 13:29 Mostly Cloudy 81 27 72 22 74 74 SSE 15 24 29.84 1011 10 16 0.00 0.00
1:56 pm 13:56 Mostly Cloudy 82 27.8 72 22.2 72 72 SSE 17 28 29.89 1012 10 16 0.00 0.00
2:18 pm 14:18 Mostly Cloudy 84 29 72 22 66 66 SSE 18 30 29.80 1009 10 16 0.00 0.00
2:56 pm 14:56 Mostly Sunny 84 28.9 72 22.2 67 67 SSE 20 31 29.84 1011 10 16 0.00 0.00
3:56 pm 15:56 Sunny 79 26.1 71 21.7 77 77 SE 13 20 29.86 1011 10 16 0.00 0.00
4:56 pm 16:56 Cloudy with Light Rain 77 25 73 22.8 88 88 SE 9 15 29.85 1011 10 16 0.00 0.03
5:56 pm 17:56 Mostly Cloudy with Light Rain 75 23.9 72 22.2 90 90 SE 14 22 29.84 1010 6 10 0.03 0.76
6:10 pm 18:10 Cloudy with Light Rain 73 23 72 22 94 94 SE 29 46 29.80 1009 10 16 0.00 0.00
6:33 pm 18:33 Cloudy 70 21 64 18 83 83 ESE 26 43 29.80 1009 10 16 0.01 0.25
6:56 pm 18:56 Cloudy with Light Rain 70 21.1 66 18.9 87 87 ESE 17 28 29.83 1010 9 14 0.02 0.51
7:56 pm 19:56 Cloudy with Light Rain 70 21.1 67 19.4 90 90 SW 10 17 29.90 1013 10 16 0.02 0.51
8:04 pm 20:04 Cloudy with Nearby Thunderstorms 70 21 66 19 88 88 VRB 3 6 29.88 1012 10 16 0.00 0.03
8:13 pm 20:13 Cloudy with Light Rain 70 21 66 19 88 88 NNW 6 9 29.88 1012 10 16 0.00 0.03
8:45 pm 20:45 Cloudy with Light Rain 70 21 64 18 83 83 NE 10 17 29.85 1011 10 16 0.02 0.51
8:56 pm 20:56 Cloudy with Rain 69 20.6 65 18.3 87 87 ENE 10 17 29.88 1012 8 13 0.05 1.27
9:04 pm 21:04 Cloudy with Nearby Thunderstorms 66 19 64 18 94 94 ENE 13 20 29.85 1011 7 11 0.00 0.00
9:18 pm 21:18 Cloudy with Nearby Thunderstorms 66 19 64 18 94 94 NNE 17 28 29.83 1010 3 4 0.55 13.97
9:24 pm 21:24 Cloudy with Rain 64 18 64 18 100 100 N 15 24 29.84 1011 3 5 0.58 14.73
9:27 pm 21:27 Cloudy with Nearby Thunderstorms 64 18 64 18 100 100 N 17 28 29.84 1011 4 6 0.58 14.73
9:56 pm 21:56 Windy with Storms Likely 68 20 66 18.9 93 93 N 25 41 29.82 1010 10 16 0.59 14.99
10:00 pm 22:00 Windy with Storms Likely 68 20 66 19 94 94 N 24 39 29.80 1009 10 16 0.00 0.03
10:27 pm 22:27 Cloudy with Thunderstorms 68 20 64 18 88 88 N 30 48 29.78 1008 10 16 0.02 0.51
10:56 pm 22:56 Cloudy with Thunderstorms 66 18.9 64 17.8 93 93 WNW 25 41 29.82 1010 9 14 0.35 8.89
11:13 pm 23:13 Cloudy with Strong Thunderstorms 64 18 64 18 100 100 WNW 15 24 29.85 1011 3 4 0.00 0.00
11:21 pm 23:21 Cloudy with Strong Thunderstorms 64 18 64 18 100 100 W 13 20 29.88 1012 2 3 1.00 25.40
11:28 pm 23:28 Cloudy with Strong Thunderstorms 64 18 64 18 100 100 WNW 15 24 29.86 1011 2 3 0.00 0.00
11:56 pm 23:56 Cloudy with Nearby Thunderstorms 64 17.8 64 17.8 100 100 N 17 28 29.81 1010 4 6 2.43 61.72

Powered by AerisWeather